Lapse_Rate
9.4 8.4 9.1 9.0 9.0 9.1 8.1 7.9 8.0 8.1 8.2 8.7 9.0 8.1 8.1 8.2 8.4 8.2 8.3 8.2 8.5 9.3 9.5 8.2 7.7 7.0 6.0 6.7 6.1 7.1 7.9 7.7 7.7 7.6 6.9 6.8 6.2 5.9 6.5 6.3 6.2 6.5 6.5 6.1 5.9 5.2 5.5
8.8 9.2 9.1 9.0 9.1 8.3 8.1 8.7 8.8 9.3 9.3 9.3 9.2 8.2 8.2 8.4 8.3 8.2 8.3 8.2 8.7 8.4 9.3 9.0 7.9 7.1 5.9 6.5 6.3 6.7 7.1 7.3 7.6 6.7 5.9 6.6 6.1 5.8 5.7 6.4 6.4 6.1 5.9 5.9 5.7 5.7 5.8
8.6 9.3 9.0 8.9 9.0 8.0 8.4 8.6 9.3 9.1 9.3 9.4 9.3 9.0 8.4 8.6 9.0 8.2 8.2 8.5 8.8 9.2 9.3 9.2 8.3 6.7 6.5 6.9 7.2 6.4 7.0 6.4 6.8 6.6 5.8 6.2 5.9 6.4 5.8 6.5 5.8 6.2 6.5 6.5 6.3 6.1 6.4
8.8 9.0 9.3 9.0 8.7 8.0 8.9 8.6 8.5 8.7 8.4 9.3 9.0 8.5 8.4 8.4 8.4 8.3 8.1 7.9 8.3 8.0 8.8 8.9 8.3 6.0 6.8 7.1 6.9 6.3 7.0 5.4 5.4 5.2 6.3 5.8 6.5 6.4 6.1 6.2 6.3 6.5 6.5 6.5 6.5 6.4 5.9
9.0 8.9 8.9 9.5 8.0 8.0 8.8 8.4 8.4 9.2 8.8 9.2 8.9 8.9 8.9 8.4 8.3 8.1 8.0 7.9 7.8 7.8 8.7 8.5 7.9 6.4 6.8 8.1 7.0 7.5 7.4 6.8 6.1 5.8 6.5 7.0 6.2 6.1 6.2 6.5 6.5 6.5 6.5 6.5 6.5 6.3 6.5
8.8 8.8 9.2 9.3 7.9 7.9 8.4 8.4 8.4 8.7 8.5 8.4 9.0 9.4 9.2 8.3 8.3 8.3 8.1 7.8 6.8 7.3 7.0 8.1 7.9 6.7 7.2 7.2 6.4 7.3 7.3 7.0 6.5 5.8 7.0 5.9 5.6 6.5 6.5 6.5 6.5 6.5 6.5 6.5 6.5 6.5 6.5
8.8 9.0 8.9 9.2 8.0 7.9 8.3 8.4 8.6 9.3 8.7 8.2 9.4 9.4 8.6 8.2 8.2 7.7 6.8 5.2 4.9 6.3 6.4 6.4 7.0 6.9 7.0 7.4 7.2 6.4 7.5 7.4 5.5 5.8 6.5 6.3 6.5 6.5 6.5 6.5 6.5 6.5 6.5 6.5 6.5 6.5 6.5
8.8 9.0 9.1 9.0 8.2 8.4 8.4 8.5 8.4 8.5 9.0 8.9 9.4 8.9 8.3 8.0 8.0 7.8 6.6 5.9 6.1 7.1 6.6 6.6 7.2 6.6 7.6 7.5 6.7 6.2 7.4 6.5 6.3 6.5 6.5 6.5 6.5 6.5 6.5 6.5 6.5 6.5 6.5 6.5 6.5 6.5 6.5
8.7 9.4 9.2 9.1 8.2 8.7 8.3 8.4 8.8 9.4 8.7 9.3 9.3 8.3 7.9 8.0 8.3 6.5 6.1 7.2 6.7 6.3 6.7 7.1 7.4 6.7 7.3 7.2 6.3 6.6 7.4 6.6 6.5 6.5 6.5 6.5 6.5 6.5 6.5 6.5 6.5 6.5 6.5 6.5 6.5 6.5 6.5
9.3 9.2 9.2 9.2 8.2 9.0 8.4 9.4 9.3 8.8 9.4 9.3 8.4 8.0 7.9 8.0 7.2 6.5 6.7 6.3 6.2 6.3 6.5 6.5 6.7 6.9 6.9 6.2 6.5 7.1 7.5 6.6 6.4 6.5 6.5 6.5 6.5 6.5 6.5 6.5 6.5 6.5 6.5 6.5 6.5 6.5 6.5
9.3 9.1 9.2 9.0 9.2 9.2 9.4 9.3 9.4 9.3 8.8 8.0 7.7 8.0 7.6 7.5 6.4 7.2 7.4 5.2 5.7 6.5 6.5 6.5 6.6 7.2 6.9 6.4 6.3 6.7 6.5 6.9 6.5 6.5 6.5 6.5 6.5 6.5 6.5 6.5 6.5 6.5 6.5 6.5 6.5 6.5 6.5
9.3 9.0 9.3 8.8 9.4 9.2 9.2 8.6 8.8 8.3 7.8 7.4 7.6 7.4 7.3 6.2 6.5 6.3 6.2 6.8 5.5 6.5 6.5 6.5 6.6 6.5 6.5 6.3 6.4 6.6 6.6 6.8 6.4 6.5 6.5 6.5 6.5 6.5 6.5 6.5 6.5 6.5 6.5 6.5 6.5 6.5 6.5
9.3 9.1 9.3 9.4 9.2 9.1 9.2 8.5 8.2 8.0 7.6 7.4 6.8 6.6 6.2 5.8 6.0 6.0 6.0 5.9 6.5 6.5 6.5 6.5 6.5 6.5 6.5 6.5 6.5 6.5 6.5 6.5 6.5 6.5 6.5 6.5 6.5 6.5 6.3 6.5 6.5 6.5 6.5 6.5 6.5 6.5 6.5
8.8 9.3 9.3 9.3 9.3 9.3 9.2 8.3 8.0 7.9 7.8 7.6 7.0 5.6 5.2 4.7 5.5 6.0 6.0 6.5 6.5 6.5 6.5 6.5 6.5 6.5 6.5 6.5 6.5 6.5 6.5 6.5 6.5 6.5 6.5 6.5 6.5 6.5 6.5 6.5 6.5 6.5 6.5 6.5 6.5 6.5 6.5
8.8 9.3 9.3 9.3 9.2 9.2 9.1 8.7 8.1 7.9 7.4 7.3 6.0 4.6 4.8 4.9 6.1 6.0 6.4 6.5 6.5 6.5 6.5 6.5 6.5 6.5 6.5 6.5 6.5 6.5 6.5 6.5 6.5 6.5 6.5 6.5 6.5 6.5 6.5 6.5 6.5 6.5 6.5 6.5 6.5 6.5 6.5
8.1 9.2 9.2 9.3 8.9 8.8 8.6 8.9 7.5 6.5 7.0 6.1 3.3 4.9 5.2 5.5 5.4 5.1 6.1 6.5 6.5 6.5 6.5 6.5 6.5 6.5 6.5 6.5 6.5 6.5 6.5 6.5 6.5 6.5 6.5 6.5 6.5 6.5 6.5 6.4 6.4 6.5 6.5 6.5 6.5 6.5 6.5
6.3 8.1 9.2 9.1 6.5 5.9 7.0 5.9 5.9 5.5 5.8 4.9 2.4 3.9 5.2 5.0 4.3 4.5 6.5 6.5 6.5 6.5 6.3 6.5 6.5 6.5 6.5 6.5 6.5 6.5 6.5 6.5 6.5 6.5 6.5 6.5 6.5 6.5 6.5 6.5 6.5 6.5 6.5 6.5 6.5 6.5 6.5
4.4 4.9 9.2 8.9 6.0 5.6 6.0 5.9 5.2 5.1 4.9 2.9 2.4 6.3 3.7 3.2 6.0 6.4 6.5 6.5 6.8 6.5 6.3 6.5 6.5 6.5 6.5 6.5 6.5 6.5 6.5 6.5 5.9 6.2 6.5 6.5 6.5 6.5 6.5 6.5 6.5 6.5 6.5 6.5 6.5 6.5 6.5
5.2 4.7 6.8 7.7 6.6 5.5 5.4 5.3 5.7 4.8 5.0 1.6 3.1 3.1 2.9 3.0 6.5 6.5 6.5 6.5 6.6 6.5 6.5 6.5 6.5 6.5 6.5 6.5 6.5 6.5 6.5 6.3 5.6 6.5 6.5 6.5 6.5 6.5 6.5 6.5 6.5 6.5 6.5 6.5 6.5 6.5 6.5
5.3 5.1 5.5 6.0 6.4 5.0 5.3 5.1 5.3 4.9 5.0 2.1 3.4 6.5 3.2 3.1 5.2 6.5 6.5 6.5 6.5 5.8 6.5 6.3 6.5 6.4 6.5 6.5 6.5 6.5 6.5 6.5 5.9 6.0 6.2 6.0 6.5 6.5 6.5 6.5 6.5 6.5 6.5 6.5 6.5 6.5 6.5
5.9 5.6 5.2 5.7 5.8 5.3 5.1 4.7 5.1 5.0 4.5 2.1 3.6 6.6 6.3 6.5 6.3 6.5 6.5 6.5 6.5 6.5 6.1 5.8 6.5 6.5 6.5 6.5 6.5 6.5 6.5 6.5 6.4 6.5 6.4 6.5 6.5 6.5 6.5 6.5 6.5 6.5 6.5 6.5 6.5 6.5 6.5
6.3 6.0 6.1 5.4 4.8 5.7 5.5 5.4 5.0 5.2 4.6 2.8 6.7 6.5 6.7 5.9 5.5 6.5 6.5 6.5 6.5 6.5 6.5 6.5 6.5 6.5 6.5 6.5 6.5 6.5 6.5 6.5 6.5 6.5 6.5 6.5 6.5 6.5 6.5 6.5 6.5 6.5 6.5 6.5 6.5 6.5 6.5
6.9 6.7 6.7 6.0 5.0 5.2 5.7 6.0 5.5 5.3 4.2 5.0 5.8 5.6 6.4 5.9 6.5 6.5 6.5 6.5 6.5 6.5 6.3 6.3 6.5 6.5 6.5 6.5 6.4 5.7 5.2 4.9 6.2 6.5 6.5 6.5 6.5 6.5 6.5 6.5 6.5 6.5 6.5 6.5 6.5 6.5 6.5
6.3 7.3 8.0 7.1 5.8 6.0 6.0 6.3 6.3 5.7 5.7 3.8 5.3 5.0 6.6 6.5 6.5 6.5 6.5 6.4 6.5 6.5 6.5 6.4 6.0 6.5 6.5 6.3 5.5 5.1 5.0 5.8 5.9 6.5 6.1 6.5 6.5 6.5 6.5 6.5 6.5 6.5 6.5 6.5 6.5 6.5 6.5
6.6 7.5 8.1 7.1 6.8 6.8 8.6 7.6 7.4 7.4 6.0 4.0 4.8 4.8 6.3 6.5 6.2 6.4 6.4 6.5 6.4 5.9 6.4 6.5 6.2 5.6 4.9 5.9 6.5 6.5 6.5 6.5 6.5 6.5 6.5 6.5 6.5 6.5 6.5 6.5 6.5 6.5 6.5 6.5 6.5 6.5 6.5
7.6 7.1 8.1 7.7 8.3 7.8 9.1 9.1 8.1 9.2 7.1 2.8 6.1 5.3 4.9 6.7 6.3 6.3 6.4 6.1 6.5 6.5 6.5 6.4 6.3 5.1 5.4 6.5 6.5 6.5 6.5 6.5 6.5 6.5 6.5 6.5 6.5 6.5 6.5 6.5 6.5 6.5 6.5 6.0 6.5 6.5 6.5
8.3 7.7 8.0 7.7 8.0 8.4 9.2 8.9 9.2 9.4 9.3 4.2 5.8 6.3 6.0 6.7 6.5 6.2 6.2 6.3 5.4 6.0 6.5 6.1 6.1 6.1 5.2 6.5 6.5 6.5 6.5 6.5 6.5 6.5 6.5 6.5 6.5 6.5 6.5 6.5 6.5 6.5 6.5 5.5 6.5 6.5 6.3
8.3 7.4 7.1 7.9 7.4 8.4 8.9 8.6 9.0 8.9 8.9 5.9 4.8 6.2 5.3 6.7 6.2 5.1 5.6 6.0 5.8 5.0 6.5 5.5 6.0 5.9 6.3 6.5 6.5 6.5 6.5 6.5 6.5 6.5 6.5 6.5 6.5 6.5 6.5 6.5 6.5 5.7 6.4 6.5 6.1 4.7 6.2
7.7 7.8 7.1 7.9 7.2 7.6 8.4 9.1 8.8 8.9 8.8 6.5 4.8 5.6 6.0 6.0 4.3 4.1 4.4 3.8 4.7 5.8 5.5 4.9 5.5 5.7 4.9 6.5 6.5 6.5 6.5 6.5 6.5 6.5 6.5 6.5 6.5 6.5 6.5 6.5 6.2 5.8 5.8 5.1 3.9 4.2 5.1
Wind_Speed
20 21 23 23 23 23 25 24 24 24 25 25 25 22 20 19 20 19 19 17 17 18 19 22 21 21 5 5 8 7 13 19 21 15 14 8 5 5 6 6 3 3 2 4 4 6 4
20 22 23 24 24 25 24 23 24 24 24 23 24 21 21 21 19 15 17 15 17 19 19 19 19 16 3 10 6 11 2 12 11 10 9 8 7 5 5 3 7 4 7 6 4 5 3
21 24 24 26 26 26 24 24 25 24 24 24 23 21 19 19 18 15 15 16 18 18 17 16 18 7 6 12 2 3 7 9 7 7 8 6 4 4 4 3 5 2 3 1 5 3 5
22 23 24 25 26 25 25 25 25 23 24 22 21 19 17 18 17 16 15 18 17 17 16 16 13 2 5 7 16 8 4 5 5 6 6 8 5 1 2 2 3 5 3 3 3 7 5
22 24 27 26 27 27 26 26 24 24 23 22 21 20 19 19 18 16 15 16 17 18 15 14 6 4 3 3 5 4 2 6 6 4 4 6 6 4 2 5 3 2 4 4 5 6 4
25 26 28 27 28 28 27 26 25 25 23 22 24 20 21 16 15 14 22 18 19 13 6 5 5 5 4 5 5 5 2 8 4 8 8 5 3 4 4 3 8 5 5 2 4 1 4
24 25 26 28 29 28 26 25 25 24 22 21 22 19 18 18 16 17 9 4 4 1 2 5 4 5 1 1 5 5 4 5 3 4 6 5 5 11 11 7 3 5 3 3 3 1 4
24 26 26 28 29 28 26 27 26 25 25 23 21 19 19 19 19 13 1 1 3 1 3 10 7 1 4 4 5 7 9 5 4 3 6 5 9 6 6 6 3 2 0 3 5 1 2
24 27 27 27 29 28 28 26 25 27 27 23 20 21 22 25 20 4 3 3 4 3 1 3 5 2 7 6 4 8 6 4 4 4 3 5 4 9 5 5 4 1 3 3 3 5 2
23 25 28 27 28 28 27 28 28 29 26 23 23 23 26 25 11 4 2 4 4 3 3 4 6 3 1 8 5 4 4 3 3 8 10 4 6 10 7 7 5 4 2 2 3 3 3
24 26 27 28 26 27 29 30 31 30 30 27 25 24 25 11 3 2 1 3 3 1 5 4 6 4 2 2 12 1 2 1 4 5 5 2 5 6 4 4 4 3 3 4 3 3 2
23 25 26 27 27 27 28 31 32 33 33 28 21 18 13 4 2 2 4 4 2 2 5 3 3 8 7 4 4 5 1 2 4 6 7 3 1 4 3 3 3 7 4 6 4 2 2
23 25 26 26 27 28 31 31 33 34 32 22 17 14 7 2 3 6 5 1 3 4 2 4 5 10 10 6 6 3 1 5 3 5 3 5 3 2 5 7 5 4 5 2 4 3 5
21 24 26 25 27 30 30 32 34 34 30 21 12 8 10 3 9 6 1 1 5 4 2 7 13 13 6 5 6 2 4 4 3 6 3 3 2 3 2 4 5 2 5 4 5 1 4
20 23 24 24 25 28 31 32 33 34 28 21 11 4 3 3 1 2 1 4 2 3 2 11 13 9 5 6 3 3 3 3 3 2 5 4 2 1 2 2 4 3 1 2 4 2 3
19 21 23 24 26 28 30 33 32 33 25 16 2 4 3 9 5 2 3 5 4 5 8 5 5 2 3 3 4 2 3 2 4 3 2 5 4 1 1 3 5 3 6 3 3 1 3
17 20 22 24 25 26 29 31 32 31 29 9 3 3 2 11 2 4 3 4 3 6 7 5 3 5 5 4 4 2 6 2 2 3 3 3 4 2 4 3 6 2 1 5 4 3 3
14 16 21 23 24 26 27 30 32 31 25 7 2 3 4 4 4 3 2 3 4 4 2 3 4 5 4 4 3 3 6 3 6 6 4 1 4 3 5 2 3 3 5 5 3 3 2
15 16 18 21 23 26 28 30 32 31 16 1 2 2 3 3 3 3 1 2 2 3 2 3 3 2 3 4 4 2 4 3 7 6 6 4 1 2 2 3 3 3 4 4 4 3 6
13 15 17 19 23 25 27 29 31 33 17 3 2 3 4 4 2 3 4 5 2 2 3 4 4 5 5 2 2 5 3 4 7 6 6 5 3 4 5 4 4 3 5 6 6 3 3
13 15 15 17 20 24 26 29 31 33 19 3 3 2 2 3 3 3 3 3 5 6 5 5 4 5 3 3 3 3 2 2 4 3 3 4 3 2 5 6 3 4 5 7 8 11 5
12 14 13 15 18 21 24 26 30 32 20 3 2 2 3 3 3 5 3 4 4 4 5 4 4 1 2 3 3 5 5 2 2 3 3 0 1 2 4 3 5 5 9 9 9 9 12
12 13 12 13 15 18 20 23 25 29 17 3 1 1 1 3 5 2 2 1 2 1 4 3 2 4 6 3 2 2 3 6 4 6 3 4 4 1 3 4 5 6 11 11 5 5 8
11 13 13 12 13 15 17 19 20 22 19 1 2 0 1 4 2 2 5 3 2 3 3 2 2 2 2 1 2 4 7 6 6 2 4 4 4 2 3 4 1 6 4 7 11 6 12
10 12 13 11 12 13 14 16 17 17 19 2 3 1 1 2 3 6 3 1 0 3 3 1 2 1 1 3 3 2 2 2 3 3 3 4 4 1 1 3 6 4 3 5 5 6 6
9 12 12 9 10 12 12 13 14 14 15 4 2 2 1 1 4 1 4 3 3 1 3 1 1 2 3 2 2 3 4 3 3 2 3 4 5 2 3 2 3 2 1 2 4 4 4
9 11 11 11 10 10 12 11 14 12 11 4 1 5 2 3 3 1 4 3 1 2 2 2 1 1 3 2 2 3 3 4 4 5 5 3 2 6 4 3 6 6 4 4 1 4 1
9 9 10 13 10 9 11 11 11 12 9 3 3 3 2 3 7 4 3 2 3 1 3 3 3 1 2 2 3 3 3 3 2 3 5 6 6 3 4 3 7 5 3 3 4 3 2
8 8 10 14 17 8 10 10 10 10 8 2 1 3 1 2 5 3 9 11 5 2 2 2 2 3 4 3 1 2 2 3 3 3 0 4 6 4 7 5 3 3 4 4 3 3 2
Wind_Direction
338 335 343 338 334 326 331 330 332 331 326 324 322 320 310 307 302 309 301 302 297 292 291 293 299 308 201 192 239 285 303 187 197 182 188 177 155 141 170 173 136 167 211 201 223 263 243
332 340 340 334 331 338 334 336 332 332 326 326 324 319 315 312 314 312 300 297 291 291 292 290 296 311 228 211 235 245 253 165 179 153 155 156 181 172 159 202 173 190 194 253 259 239 235
344 339 338 337 332 337 335 331 333 333 333 332 329 328 320 312 315 313 305 299 295 294 293 290 290 312 204 215 121 310 174 191 147 147 150 173 147 155 153 136 199 156 145 217 235 219 233
343 333 334 336 337 336 333 334 331 335 330 331 328 334 328 323 320 316 308 297 293 289 292 288 293 334 240 260 269 313 143 144 137 168 133 163 143 120 180 145 76 126 89 174 261 177 237
340 336 337 335 336 335 332 332 335 330 335 329 329 326 322 318 312 312 311 300 293 285 285 283 295 244 221 216 204 211 219 143 157 142 162 144 129 183 110 129 82 8 164 190 303 214 221
338 340 339 334 337 336 336 338 336 337 333 327 326 328 324 324 326 321 321 306 285 284 273 248 252 249 187 208 160 145 157 121 148 145 141 115 133 153 126 158 192 161 181 230 209 165 178
341 338 341 336 340 339 339 338 332 333 333 325 327 326 325 321 323 313 314 335 19 71 239 200 216 216 180 218 110 174 133 99 107 126 162 185 179 197 185 178 145 138 152 188 237 262 338
339 344 344 336 342 344 342 341 339 329 336 331 332 324 318 315 320 321 17 189 213 75 297 255 305 92 271 202 134 160 131 154 166 157 133 152 212 165 159 146 176 73 271 276 284 315 321
348 342 341 341 344 346 348 341 335 331 335 335 329 319 314 313 313 322 226 224 201 127 210 177 305 225 178 132 99 152 135 102 138 114 93 124 132 143 151 166 189 160 182 216 230 326 68
344 348 345 345 347 351 349 344 337 336 335 329 319 313 310 310 292 129 228 267 158 204 106 180 192 220 145 138 62 111 143 141 145 136 114 64 135 137 151 191 160 156 223 148 79 51 265
348 343 344 346 354 354 349 341 340 337 330 322 316 316 319 325 108 131 204 158 96 35 132 119 133 323 121 63 133 164 79 165 129 115 116 116 146 148 173 191 138 172 134 108 97 95 34
346 345 348 354 355 352 347 346 340 340 338 337 342 345 354 44 84 57 125 79 33 41 73 110 137 147 89 43 46 95 256 83 64 62 61 103 114 138 161 68 149 138 79 45 52 68 10
344 347 351 355 352 356 353 348 347 349 356 10 37 40 46 62 120 146 127 54 48 65 256 112 134 124 113 110 108 125 153 71 121 125 91 15 10 35 105 77 27 82 74 331 347 16 222
346 349 355 355 359 356 352 350 353 355 357 9 25 38 49 64 102 120 6 33 54 314 44 125 114 94 90 85 101 96 100 96 32 86 91 142 165 183 161 146 171 126 148 160 229 246 289
349 353 357 359 0 357 355 357 355 355 353 353 339 337 1 352 265 182 39 46 350 339 18 118 84 78 49 50 77 100 29 125 140 105 125 122 352 36 74 133 130 186 144 173 107 62 40
349 354 357 359 4 3 356 357 358 356 353 354 23 342 306 322 336 47 66 39 26 161 90 59 83 133 111 117 119 109 174 195 127 139 157 189 94 34 110 87 47 142 152 67 2 105 275
350 356 357 1 4 2 357 356 359 358 352 357 23 15 232 332 5 61 56 26 8 331 18 63 140 100 104 118 121 122 179 11 166 150 39 111 93 283 106 201 172 120 164 56 110 131 160
348 3 357 360 5 5 1 360 360 0 358 29 25 21 321 350 53 39 27 326 317 306 331 63 89 93 113 118 125 109 181 212 182 137 151 149 119 177 198 9 175 157 169 148 124 226 107
344 1 360 1 2 6 4 1 360 0 8 54 10 282 329 42 40 1 356 310 288 306 327 140 94 103 110 127 112 120 184 220 171 148 168 173 17 56 29 23 349 190 191 151 123 104 198
340 352 1 2 0 6 5 4 1 359 1 91 44 13 337 39 339 343 354 347 332 231 30 63 99 102 100 102 82 178 152 3 161 162 181 100 117 152 192 203 140 200 188 188 143 144 201
334 345 358 1 3 5 4 4 3 360 358 84 38 26 13 333 347 331 327 330 8 20 14 44 52 131 126 128 115 120 101 89 71 123 110 115 139 142 248 244 172 204 206 201 195 212 206
326 340 349 0 4 4 4 5 6 2 353 81 56 0 332 287 291 323 346 8 30 343 18 7 115 309 23 100 180 165 127 130 183 70 107 118 135 51 300 306 216 247 240 219 222 234 251
322 334 339 355 4 2 4 5 10 11 16 53 10 352 304 292 333 9 309 331 9 1 28 53 126 99 74 49 14 110 145 155 178 147 127 122 129 101 282 340 320 285 232 193 186 206 211
324 320 335 350 358 2 358 2 7 17 22 335 358 284 357 293 332 309 336 316 5 351 159 352 61 104 181 111 113 52 57 90 119 95 138 129 116 132 286 360 355 248 157 177 197 226 207
318 317 333 342 355 355 351 355 1 11 20 25 327 5 77 263 305 294 321 250 37 16 35 40 357 162 139 85 76 117 58 91 192 182 156 137 121 175 258 263 276 265 168 140 172 279 210
316 313 319 333 344 343 342 347 350 358 15 48 333 328 336 276 239 104 310 282 185 201 354 332 1 341 73 90 106 179 191 177 185 131 110 104 102 173 198 259 260 274 102 125 106 305 242
302 311 315 337 332 338 332 339 337 344 4 81 318 350 295 270 259 163 211 260 164 131 161 293 240 56 37 102 140 179 237 176 174 181 162 157 189 222 238 253 286 246 243 150 138 238 334
300 309 315 325 318 331 328 320 327 332 342 92 270 15 89 288 283 246 253 272 331 93 159 211 67 315 59 150 168 199 170 221 170 201 174 170 175 188 188 234 260 164 113 184 229 294 290
302 325 326 328 328 305 318 319 310 315 317 123 302 288 151 212 259 294 268 264 219 225 334 283 188 174 192 109 212 125 176 163 151 244 177 192 186 184 193 213 239 194 255 249 191 241 285